GW2299 Weather Reports


time (UTC)temp
C
wind
direction
speed
KPH
gust
KPH
rain 1hr
cm
rain 24hr
cm
rain mn
cm
humidity
%
barometer
mb
20260505041525 13 0 0.0 4.8 0.00 0.00 0.00 46 1017.2
20260505040029 13 214 0.0 4.8 0.00 0.00 0.00 50 1017.5
20260505034528 13 233 1.6 11.3 0.00 0.00 0.00 53 1017.2
20260505033028 12 252 0.0 6.4 0.00 0.00 0.00 56 1017.6
20260505031528 13 283 0.0 11.3 0.00 0.00 0.00 52 1017.6
20260505030028 13 213 1.6 14.5 0.00 0.00 0.00 49 1017.5
20260505024528 13 0 0.0 3.2 0.00 0.00 0.00 53 1017.6
20260505023029 13 0 0.0 6.4 0.00 0.00 0.00 56 1017.8
20260505021529 11 0 0.0 1.6 0.00 0.00 0.00 63 1017.9
20260505020028 12 345 0.0 1.6 0.00 0.00 0.00 61 1018.0
20260505014528 12 0 0.0 0.0 0.00 0.00 0.00 62 1018.0
20260505013026 12 0 0.0 0.0 0.00 0.00 0.00 62 1018.2
20260505011547 12 0 0.0 1.6 0.00 0.00 0.00 61 1018.3
20260505010026 13 0 0.0 11.3 0.00 0.00 0.00 55 1018.5
20260505004528 12 239 1.6 6.4 0.00 0.00 0.00 60 1018.6
20260505003028 12 0 0.0 0.0 0.00 0.00 0.00 62 1018.5
20260505001528 12 91 0.0 0.0 0.00 0.00 0.00 64 1018.5
20260505000037 12 0 0.0 0.0 0.00 0.00 0.00 63 1018.7
20260504234530 12 89 0.0 3.2 0.00 0.00 0.00 62 1018.7
20260504233028 12 76 1.6 3.2 0.00 0.00 0.00 60 1018.9
20260504231528 12 0 1.6 4.8 0.00 0.00 0.00 60 1019.0
20260504230026 12 77 0.0 4.8 0.00 0.00 0.00 59 1019.1
20260504224532 12 93 1.6 3.2 0.00 0.00 0.00 63 1019.3
20260504223027 12 0 0.0 1.6 0.00 0.00 0.00 67 1019.3
20260504221526 13 229 0.0 1.6 0.00 0.00 0.00 66 1019.4
20260504220028 13 0 0.0 1.6 0.00 0.00 0.00 66 1019.2
20260504214526 13 0 0.0 3.2 0.00 0.00 0.00 66 1019.4
20260504213033 14 97 0.0 3.2 0.00 0.00 0.00 65 1019.4
20260504211528 14 0 0.0 1.6 0.00 0.00 0.00 64 1019.5
20260504210028 15 58 0.0 1.6 0.00 0.00 0.00 64 1019.5
20260504204528 15 0 0.0 1.6 0.00 0.00 0.00 63 1019.5
20260504203028 15 0 0.0 0.0 0.00 0.00 0.00 65 1019.6
20260504201527 15 0 0.0 1.6 0.00 0.00 0.00 64 1019.5
20260504200030 14 0 0.0 1.6 0.00 0.00 0.00 65 1019.3
20260504194531 15 0 0.0 4.8 0.00 0.00 0.00 63 1019.5
20260504193027 15 0 0.0 9.7 0.00 0.00 0.00 59 1019.4
20260504191526 16 0 0.0 11.3 0.00 0.00 0.00 59 1019.3
20260504190026 16 0 0.0 6.4 0.00 0.00 0.00 58 1019.2
20260504184528 15 221 1.6 4.8 0.00 0.00 0.00 62 1018.9
20260504183029 16 0 0.0 1.6 0.00 0.00 0.00 63 1018.8
20260504181526 16 0 0.0 4.8 0.00 0.00 0.00 61 1018.8
20260504180026 16 0 1.6 9.7 0.00 0.00 0.00 62 1018.8
20260504174527 16 286 0.0 3.2 0.00 0.00 0.00 63 1018.9
20260504173028 16 0 0.0 4.8 0.00 0.00 0.00 62 1018.8
20260504171543 16 0 0.0 8.0 0.00 0.00 0.00 63 1018.8
20260504081528 15 278 1.6 6.4 0.00 0.00 0.00 77 1021.1